EFW4KJ EGKK-LPMA

Flight info

Callsign EFW4KJ
Flight time N/A
Altitude 33000
Route IMVUR1Z IMVUR N63 SAM M195 LORKU DCT POZOF DCT LOTEE DCT PINEK DCT VERAM DCT TELMU DCT PECKY DCT LIDRO LIDRO1P
Aircraft A321/M-SDE3FGIJ1KRWXY/SB1

Departure

Time 2026-05-04 10:13
Airport London Gatwick Airport (EGKK)

Arrival

Time N/A
Airport Cristiano Ronaldo International Airport (LPMA)
Time Latitude Longitude Altitude Speed Heading
2026-05-04 09:34 51.15835 -0.16965 210 ft 0 kts 109°
2026-05-04 09:34 51.15835 -0.16966 210 ft 0 kts 109°
2026-05-04 09:54 51.15835 -0.16967 204 ft 2 kts 109°
2026-05-04 09:54 51.15843 -0.17004 203 ft 4 kts 109°
2026-05-04 09:54 51.15851 -0.17041 210 ft 2 kts 109°
2026-05-04 09:54 51.15860 -0.17069 206 ft 4 kts 162°
2026-05-04 09:55 51.15881 -0.17065 203 ft 4 kts 202°
2026-05-04 09:55 51.15895 -0.17056 215 ft 1 kts 202°
2026-05-04 09:57 51.15895 -0.17057 214 ft 0 kts 202°
2026-05-04 09:58 51.15890 -0.17059 209 ft 1 kts 202°
2026-05-04 09:58 51.15873 -0.17069 209 ft 5 kts 199°
2026-05-04 09:58 51.15834 -0.17083 206 ft 5 kts 191°
2026-05-04 10:00 51.15749 -0.17598 208 ft 5 kts 257°
2026-05-04 10:00 51.15741 -0.17658 205 ft 7 kts 257°
2026-05-04 10:02 51.15633 -0.18351 213 ft 10 kts 213°
2026-05-04 10:04 51.15184 -0.18334 209 ft 11 kts 261°
2026-05-04 10:04 51.15164 -0.18493 207 ft 18 kts 258°
2026-05-04 10:04 51.15137 -0.18687 203 ft 18 kts 257°
2026-05-04 10:04 51.15110 -0.18886 213 ft 18 kts 258°
2026-05-04 10:05 51.15083 -0.19082 212 ft 18 kts 257°
2026-05-04 10:05 51.15055 -0.19247 210 ft 12 kts 239°
2026-05-04 10:05 51.14985 -0.19266 206 ft 10 kts 181°
2026-05-04 10:05 51.14954 -0.19335 213 ft 8 kts 256°
2026-05-04 10:06 51.14940 -0.19431 216 ft 10 kts 258°
2026-05-04 10:06 51.14924 -0.19563 210 ft 17 kts 259°
2026-05-04 10:06 51.14894 -0.19779 210 ft 21 kts 257°
2026-05-04 10:08 51.14710 -0.21105 209 ft 19 kts 258°
2026-05-04 10:08 51.14685 -0.21288 214 ft 13 kts 256°
2026-05-04 10:08 51.14629 -0.21332 206 ft 6 kts 171°
2026-05-04 10:08 51.14621 -0.21329 207 ft 0 kts 168°
2026-05-04 10:09 51.14608 -0.21325 206 ft 6 kts 167°
2026-05-04 10:09 51.14556 -0.21297 204 ft 9 kts 150°
2026-05-04 10:09 51.14519 -0.21210 210 ft 10 kts 104°
2026-05-04 10:10 51.14522 -0.21145 202 ft 0 kts 77°
2026-05-04 10:12 51.14551 -0.20951 206 ft 50 kts 77°
2026-05-04 10:12 51.14674 -0.20076 204 ft 110 kts 78°
2026-05-04 10:12 51.14873 -0.18620 211 ft 157 kts 78°
2026-05-04 10:13 51.15119 -0.16841 660 ft 160 kts 77°
2026-05-04 10:13 51.15348 -0.15172 1335 ft 156 kts 77°
2026-05-04 10:13 51.15587 -0.13425 1668 ft 170 kts 77°
2026-05-04 10:13 51.15855 -0.11467 1828 ft 192 kts 77°
2026-05-04 10:14 51.16155 -0.09282 1994 ft 212 kts 77°
2026-05-04 10:14 51.16598 -0.06978 2344 ft 223 kts 56°
2026-05-04 10:16 51.22146 -0.15597 5839 ft 272 kts 258°
2026-05-04 10:16 51.21789 -0.18516 6484 ft 273 kts 258°
2026-05-04 10:16 51.21431 -0.21501 7119 ft 275 kts 258°
2026-05-04 10:16 51.21075 -0.24500 7741 ft 276 kts 258°
2026-05-04 10:17 51.20719 -0.27525 8385 ft 279 kts 258°
2026-05-04 10:17 51.20364 -0.30572 9019 ft 280 kts 258°
2026-05-04 10:19 51.17576 -0.52387 12866 ft 295 kts 254°
2026-05-04 10:19 51.16893 -0.55504 13183 ft 305 kts 246°
2026-05-04 10:19 51.16048 -0.58699 13314 ft 321 kts 245°
2026-05-04 10:19 51.15150 -0.62038 13463 ft 335 kts 245°
2026-05-04 10:20 51.14209 -0.65520 13596 ft 349 kts 245°
2026-05-04 10:20 51.13233 -0.69137 13740 ft 362 kts 245°
2026-05-04 10:20 51.12232 -0.72865 14041 ft 369 kts 246°
2026-05-04 10:20 51.11236 -0.76588 14447 ft 372 kts 246°
2026-05-04 10:21 51.10224 -0.80383 14891 ft 374 kts 246°
2026-05-04 10:21 51.09202 -0.84202 15332 ft 376 kts 245°
2026-05-04 10:21 51.08169 -0.88039 15771 ft 378 kts 245°
2026-05-04 10:21 51.07128 -0.91899 16223 ft 380 kts 245°
2026-05-04 10:22 51.05026 -0.99668 17055 ft 386 kts 245°
2026-05-04 10:22 51.03961 -1.03592 17457 ft 388 kts 245°
2026-05-04 10:22 51.02905 -1.07485 17855 ft 390 kts 245°
2026-05-04 10:23 51.01827 -1.11451 18255 ft 392 kts 245°
2026-05-04 10:23 51.00743 -1.15437 18605 ft 394 kts 245°
2026-05-04 10:25 50.90075 -1.40185 21025 ft 402 kts 212°
2026-05-04 10:25 50.87726 -1.42611 21412 ft 403 kts 212°
2026-05-04 10:25 50.85376 -1.45051 21777 ft 405 kts 212°
2026-05-04 10:25 50.83017 -1.47507 22115 ft 407 kts 212°
2026-05-04 10:26 50.80648 -1.49974 22446 ft 409 kts 212°
2026-05-04 10:26 50.78267 -1.52450 22782 ft 411 kts 212°
2026-05-04 10:26 50.75874 -1.54933 23102 ft 412 kts 212°
2026-05-04 10:26 50.73469 -1.57421 23426 ft 414 kts 212°